Location: Caltech
(34.1382°N, 118.1253°W)
Time: 16:21:36
(UTC-08:00)

Cosmos 1833 Rocket - Visible Passes

Search period start: 25 January 2015 00:00
Search period end: 04 February 2015 00:00
Orbit: 832 x 841 km, 71.0° (Epoch: 24 January)

Date Brightness Start Highest point End Pass type
(mag) Time Alt. Az. Time Alt. Az. Time Alt. Az.
25 Jan 3.9 04:23:29 10° S 04:28:40 40° ESE 04:33:56 10° NE visible
25 Jan 3.7 06:08:13 10° WSW 06:12:47 24° WNW 06:17:14 10° N visible
26 Jan 4.0 04:08:45 19° SSE 04:12:04 37° ESE 04:17:15 10° NE visible
26 Jan 3.6 05:51:24 10° WSW 05:56:07 26° WNW 06:00:44 10° N visible
27 Jan 4.1 03:55:35 33° ESE 03:55:35 33° ESE 04:00:32 10° NE visible
27 Jan 3.5 05:37:26 23° W 05:39:28 28° WNW 05:44:14 10° N visible
28 Jan 4.7 03:41:05 23° ENE 03:41:05 23° ENE 03:43:49 10° NE visible
28 Jan 3.4 05:22:52 31° WNW 05:22:52 31° WNW 05:27:44 10° N visible
29 Jan 5.2 03:26:02 15° NE 03:26:02 15° NE 03:27:05 10° NE visible
29 Jan 3.7 05:07:49 28° NNW 05:07:49 28° NNW 05:11:12 10° N visible
30 Jan 4.2 04:52:26 22° NNW 04:52:26 22° NNW 04:54:40 10° N visible
31 Jan 4.6 04:36:51 16° N 04:36:51 16° N 04:38:07 10° N visible
01 Feb 5.0 04:21:08 12° N 04:21:08 12° N 04:21:34 10° N visible
